Location: Costa Mesa
(33.6411°N, 117.9187°W)
Time: 02:02:50
(UTC+00:00)

GP-B - Pass Details

Date: 10 September 2024
Orbit: 623 x 626 km, 89.8° (Epoch: 10 October)

Event Time Altitude Azimuth Distance (km) Brightness Sun altitude
Rises 13:03:39 0° 191° (SSW) 2,899 6.3 -6.7°
Reaches altitude 10° 13:05:56 10° 198° (SSW) 1,996 5.4 -6.2°
Maximum altitude 13:10:07 43° 271° (W) 882 3.4 -5.4°
Drops below altitude 10° 13:14:19 10° 343° (NNW) 2,008 5.6 -4.5°
Sets 13:16:38 0° 350° (N) 2,918 6.5 -4.0°
